Location: Newark
(35.2672°N, 80.7344°W)
Time: 00:03:31
(UTC+00:00)

Tiros 1 - All Passes

Search period start: 20 January 2020 00:00
Search period end: 30 January 2020 00:00
Orbit: 630 x 664 km, 48.4° (Epoch: 19 January)

Date Brightness Start Highest point End Pass type
(mag) Time Alt. Az. Time Alt. Az. Time Alt. Az.
20 Jan - 01:09:13 10° NW 01:13:34 33° NNE 01:17:56 10° E visible
20 Jan - 02:51:15 10° WNW 02:55:57 54° SW 03:00:39 10° SE night (unlit)
20 Jan - 18:43:07 10° SSW 18:47:39 52° SE 18:52:16 10° ENE daylight
20 Jan - 20:25:43 10° W 20:30:00 34° NNW 20:34:21 10° NE daylight
20 Jan - 22:10:12 10° NW 22:13:20 17° N 22:16:29 10° NE daylight
20 Jan - 23:53:17 10° NW 23:56:56 21° NNE 00:00:36 10° ENE visible
21 Jan - 01:35:05 10° NW 01:39:52 63° NE 01:44:38 10° ESE visible
21 Jan - 03:18:00 10° W 03:21:45 23° SW 03:25:29 10° S night (unlit)
21 Jan - 17:28:34 10° S 17:31:52 19° SE 17:35:12 10° E daylight
21 Jan - 19:09:00 10° WSW 19:13:40 70° NW 19:18:24 10° NE daylight
21 Jan - 20:52:50 10° WNW 20:56:32 22° NNW 21:00:14 10° NE daylight
21 Jan - 22:37:00 10° NW 22:40:05 17° N 22:43:12 10° NE daylight
22 Jan - 00:19:11 10° NW 00:23:28 31° NNE 00:27:46 10° E visible
22 Jan - 02:01:11 10° WNW 02:05:54 60° SW 02:10:37 10° SE visible
22 Jan - 17:53:10 10° SSW 17:57:37 47° SE 18:02:10 10° ENE daylight
22 Jan - 19:35:36 10° W 19:39:55 35° NNW 19:44:18 10° NE daylight
22 Jan - 21:20:04 10° NW 21:23:12 17° N 21:26:22 10° NE daylight
22 Jan - 23:03:14 10° NW 23:06:48 20° NNE 23:10:24 10° ENE visible
23 Jan - 00:45:02 10° NW 00:49:47 58° NNE 00:54:31 10° ESE visible
23 Jan - 02:27:49 10° WNW 02:31:43 25° SW 02:35:38 10° S visible
23 Jan - 16:38:49 10° S 16:41:51 17° SE 16:44:56 10° E daylight
23 Jan - 18:18:56 10° WSW 18:23:36 76° NW 18:28:21 10° NE daylight
23 Jan - 20:02:41 10° WNW 20:06:24 23° NNW 20:10:10 10° NE daylight
23 Jan - 21:46:55 10° NW 21:49:57 17° N 21:53:02 10° NE daylight
23 Jan - 23:29:09 10° NW 23:33:22 30° NNE 23:37:36 10° E visible
24 Jan - 01:11:05 10° WNW 01:15:51 65° SW 01:20:36 10° SE visible
24 Jan - 17:03:12 10° SSW 17:07:36 42° SE 17:12:02 10° ENE daylight
24 Jan - 18:45:28 10° W 18:49:49 38° NNW 18:54:15 10° NE daylight
24 Jan - 20:29:54 10° NW 20:33:04 17° N 20:36:16 10° NE daylight
24 Jan - 22:13:12 10° NW 22:16:41 20° NNE 22:20:12 10° ENE daylight
24 Jan - 23:55:00 10° NW 23:59:42 54° NNE 00:04:24 10° ESE visible
25 Jan - 01:37:39 10° WNW 01:41:42 27° SW 01:45:44 10° S visible
25 Jan - 15:49:06 10° SSE 15:51:52 16° SE 15:54:38 10° E daylight
25 Jan - 17:28:54 10° SW 17:33:33 82° NW 17:38:17 10° NE daylight
25 Jan - 19:12:31 10° WNW 19:16:18 23° NNW 19:20:06 10° NE daylight
25 Jan - 20:56:49 10° NW 20:59:50 16° N 21:02:51 10° NE daylight
25 Jan - 22:39:06 10° NW 22:43:15 28° NNE 22:47:25 10° E daylight
26 Jan - 00:21:01 10° WNW 00:25:48 72° SW 00:30:34 10° SE visible
26 Jan - 02:06:20 10° WSW 02:07:21 11° SW 02:08:22 10° SW visible
26 Jan - 16:13:16 10° SSW 16:17:34 39° SE 16:21:55 10° ENE daylight
26 Jan - 17:55:21 10° W 17:59:45 40° NNW 18:04:12 10° NE daylight
26 Jan - 19:39:46 10° NW 19:42:57 18° N 19:46:10 10° NE daylight
26 Jan - 21:23:09 10° NNW 21:26:34 19° NNE 21:29:59 10° ENE daylight
26 Jan - 23:04:58 10° NW 23:09:37 50° NNE 23:14:17 10° ESE visible
27 Jan - 00:47:30 10° WNW 00:51:40 30° SW 00:55:50 10° SSE visible
27 Jan - 14:59:27 10° SSE 15:01:52 14° SE 15:04:17 10° E daylight
27 Jan - 16:38:51 10° SW 16:43:30 88° NNW 16:48:13 10° NE daylight
27 Jan - 18:22:22 10° WNW 18:26:11 24° NNW 18:30:04 10° NE daylight
27 Jan - 20:06:43 10° NW 20:09:42 16° N 20:12:42 10° NE daylight
27 Jan - 21:49:05 10° NW 21:53:09 27° NNE 21:57:14 10° E daylight
27 Jan - 23:30:57 10° NW 23:35:44 78° SW 23:40:32 10° SE visible
28 Jan - 01:15:34 10° WSW 01:17:20 12° SW 01:19:06 10° SSW visible
28 Jan - 15:23:21 10° SSW 15:27:32 35° SE 15:31:47 10° ENE daylight
28 Jan - 17:05:15 10° WSW 17:09:41 42° NNW 17:14:10 10° NE daylight
28 Jan - 18:49:36 10° NW 18:52:49 18° N 18:56:04 10° NNE daylight
28 Jan - 20:33:06 10° NNW 20:36:26 19° NNE 20:39:47 10° NE daylight
28 Jan - 22:14:56 10° NW 22:19:32 46° NNE 22:24:09 10° ESE daylight
28 Jan - 23:57:22 10° WNW 00:01:38 33° SW 00:05:54 10° SSE visible
29 Jan - 14:09:53 10° SSE 14:11:52 13° SE 14:13:50 10° ESE daylight
29 Jan - 15:48:49 10° SW 15:53:28 85° SE 15:58:09 10° NE daylight
29 Jan - 17:32:12 10° WNW 17:36:05 25° NNW 17:40:00 10° NE daylight
29 Jan - 19:16:37 10° NW 19:19:34 16° N 19:22:33 10° NE daylight
29 Jan - 20:59:04 10° NW 21:03:03 26° NNE 21:07:02 10° ENE daylight
29 Jan - 22:40:54 10° NW 22:45:41 85° SW 22:50:28 10° SE daylight
